Year,Month,Day,Hour,Minute,Value (Times are PST for barometer in hPa)
2016,02,06,00,00,1021.09
2016,02,06,00,01,1021.08
2016,02,06,00,02,1021.13
2016,02,06,00,03,1021.15
2016,02,06,00,04,1021.15
2016,02,06,00,05,1021.21
2016,02,06,00,06,1021.27
2016,02,06,00,07,1021.27
2016,02,06,00,08,1021.28
2016,02,06,00,09,1021.32
2016,02,06,00,10,1021.34
2016,02,06,00,11,1021.35
2016,02,06,00,12,1021.34
2016,02,06,00,13,1021.29
2016,02,06,00,14,1021.25
2016,02,06,00,15,1021.20
2016,02,06,00,16,1021.20
2016,02,06,00,17,1021.28
2016,02,06,00,18,1021.35
2016,02,06,00,19,1021.40
2016,02,06,00,20,1021.42
2016,02,06,00,21,1021.42
2016,02,06,00,22,1021.42
2016,02,06,00,23,1021.40
2016,02,06,00,24,1021.40
2016,02,06,00,25,1021.43
2016,02,06,00,26,1021.47
2016,02,06,00,27,1021.47
2016,02,06,00,28,1021.47
2016,02,06,00,29,1021.47
2016,02,06,00,30,1021.46
2016,02,06,00,31,1021.47
2016,02,06,00,32,1021.50
2016,02,06,00,33,1021.52
2016,02,06,00,34,1021.57
2016,02,06,00,35,1021.64
2016,02,06,00,36,1021.70
2016,02,06,00,37,1021.74
2016,02,06,00,38,1021.77
2016,02,06,00,39,1021.82
2016,02,06,00,40,1021.84
2016,02,06,00,41,1021.86
2016,02,06,00,42,1021.91
2016,02,06,00,43,1021.97
2016,02,06,00,44,1022.00
2016,02,06,00,45,1021.96
2016,02,06,00,46,1021.94
2016,02,06,00,47,1021.97
2016,02,06,00,48,1022.03
2016,02,06,00,49,1022.06
2016,02,06,00,50,1022.09
2016,02,06,00,51,1022.13
2016,02,06,00,52,1022.18
2016,02,06,00,53,1022.22
2016,02,06,00,54,1022.25
2016,02,06,00,55,1022.27
2016,02,06,00,56,1022.25
2016,02,06,00,57,1022.26
2016,02,06,00,58,1022.28
2016,02,06,00,59,1022.30
2016,02,06,01,00,1022.32
2016,02,06,01,01,1022.33
2016,02,06,01,02,1022.37
2016,02,06,01,03,1022.42
2016,02,06,01,04,1022.45
2016,02,06,01,05,1022.47
2016,02,06,01,06,1022.49
2016,02,06,01,07,1022.54
2016,02,06,01,08,1022.54
2016,02,06,01,09,1022.47
2016,02,06,01,10,1022.52
2016,02,06,01,11,1022.59
2016,02,06,01,12,1022.59
2016,02,06,01,13,1022.59
2016,02,06,01,14,1022.57
2016,02,06,01,15,1022.58
2016,02,06,01,16,1022.61
2016,02,06,01,17,1022.59
2016,02,06,01,18,1022.59
2016,02,06,01,19,1022.59
2016,02,06,01,20,1022.62
2016,02,06,01,21,1022.66
2016,02,06,01,22,1022.67
2016,02,06,01,23,1022.72
2016,02,06,01,24,1022.74
2016,02,06,01,25,1022.75
2016,02,06,01,26,1022.81
2016,02,06,01,27,1022.84
2016,02,06,01,28,1022.86
2016,02,06,01,29,1022.87
2016,02,06,01,30,1022.88
2016,02,06,01,31,1022.87
2016,02,06,01,32,1022.89
2016,02,06,01,33,1022.91
2016,02,06,01,34,1022.96
2016,02,06,01,35,1022.99
2016,02,06,01,36,1023.01
2016,02,06,01,37,1023.06
2016,02,06,01,38,1023.10
2016,02,06,01,39,1023.11
2016,02,06,01,40,1023.16
2016,02,06,01,41,1023.18
2016,02,06,01,42,1023.16
2016,02,06,01,43,1023.18
2016,02,06,01,44,1023.20
2016,02,06,01,45,1023.18
2016,02,06,01,46,1023.16
2016,02,06,01,47,1023.18
2016,02,06,01,48,1023.21
2016,02,06,01,49,1023.26
2016,02,06,01,50,1023.30
2016,02,06,01,51,1023.31
2016,02,06,01,52,1023.33
2016,02,06,01,53,1023.33
2016,02,06,01,54,1023.33
2016,02,06,01,55,1023.32
2016,02,06,01,56,1023.31
2016,02,06,01,57,1023.32
2016,02,06,01,58,1023.30
2016,02,06,01,59,1023.30
2016,02,06,02,00,1023.31
2016,02,06,02,01,1023.36
2016,02,06,02,02,1023.40
2016,02,06,02,03,1023.44
2016,02,06,02,04,1023.50
2016,02,06,02,05,1023.54
2016,02,06,02,06,1023.62
2016,02,06,02,07,1023.64
2016,02,06,02,08,1023.64
2016,02,06,02,09,1023.65
2016,02,06,02,10,1023.69
2016,02,06,02,11,1023.71
2016,02,06,02,12,1023.75
2016,02,06,02,13,1023.85
2016,02,06,02,14,1023.92
2016,02,06,02,15,1023.94
2016,02,06,02,16,1023.96
2016,02,06,02,17,1023.98
2016,02,06,02,18,1023.98
2016,02,06,02,19,1023.98
2016,02,06,02,20,1023.94
2016,02,06,02,21,1023.86
2016,02,06,02,22,1023.84
2016,02,06,02,23,1023.84
2016,02,06,02,24,1023.86
2016,02,06,02,25,1023.89
2016,02,06,02,26,1023.90
2016,02,06,02,27,1023.89
2016,02,06,02,28,1023.92
2016,02,06,02,29,1023.94
2016,02,06,02,30,1023.94
2016,02,06,02,31,1023.93
2016,02,06,02,32,1023.94
2016,02,06,02,33,1023.99
2016,02,06,02,34,1024.01
2016,02,06,02,35,1024.02
2016,02,06,02,36,1024.06
2016,02,06,02,37,1024.08
2016,02,06,02,38,1024.12
2016,02,06,02,39,1024.19
2016,02,06,02,40,1024.17
2016,02,06,02,41,1024.14
2016,02,06,02,42,1024.19
2016,02,06,02,43,1024.20
2016,02,06,02,44,1024.21
2016,02,06,02,45,1024.26
2016,02,06,02,46,1024.30
2016,02,06,02,47,1024.35
2016,02,06,02,48,1024.40
2016,02,06,02,49,1024.42
2016,02,06,02,50,1024.43
2016,02,06,02,51,1024.46
2016,02,06,02,52,1024.44
2016,02,06,02,53,1024.40
2016,02,06,02,54,1024.42
2016,02,06,02,55,1024.42
2016,02,06,02,56,1024.42
2016,02,06,02,57,1024.48
2016,02,06,02,58,1024.55
2016,02,06,02,59,1024.58
2016,02,06,03,00,1024.63
2016,02,06,03,01,1024.67
2016,02,06,03,02,1024.67
2016,02,06,03,03,1024.67
2016,02,06,03,04,1024.67
2016,02,06,03,05,1024.62
2016,02,06,03,06,1024.60
2016,02,06,03,07,1024.63
2016,02,06,03,08,1024.67
2016,02,06,03,09,1024.70
2016,02,06,03,10,1024.75
2016,02,06,03,11,1024.78
2016,02,06,03,12,1024.80
2016,02,06,03,13,1024.87
2016,02,06,03,14,1024.90
2016,02,06,03,15,1024.91
2016,02,06,03,16,1024.92
2016,02,06,03,17,1024.94
2016,02,06,03,18,1024.94
2016,02,06,03,19,1024.96
2016,02,06,03,20,1024.97
2016,02,06,03,21,1024.99
2016,02,06,03,22,1025.03
2016,02,06,03,23,1025.08
2016,02,06,03,24,1025.09
2016,02,06,03,25,1025.14
2016,02,06,03,26,1025.15
2016,02,06,03,27,1025.13
2016,02,06,03,28,1025.14
2016,02,06,03,29,1025.12
2016,02,06,03,30,1025.09
2016,02,06,03,31,1025.13
2016,02,06,03,32,1025.16
2016,02,06,03,33,1025.21
2016,02,06,03,34,1025.22
2016,02,06,03,35,1025.21
2016,02,06,03,36,1025.23
2016,02,06,03,37,1025.23
2016,02,06,03,38,1025.22
2016,02,06,03,39,1025.20
2016,02,06,03,40,1025.20
2016,02,06,03,41,1025.20
2016,02,06,03,42,1025.20
2016,02,06,03,43,1025.22
2016,02,06,03,44,1025.26
2016,02,06,03,45,1025.29
2016,02,06,03,46,1025.35
2016,02,06,03,47,1025.38
2016,02,06,03,48,1025.41
2016,02,06,03,49,1025.43
2016,02,06,03,50,1025.46
2016,02,06,03,51,1025.51
2016,02,06,03,52,1025.56
2016,02,06,03,53,1025.60
2016,02,06,03,54,1025.59
2016,02,06,03,55,1025.58
2016,02,06,03,56,1025.62
2016,02,06,03,57,1025.62
2016,02,06,03,58,1025.60
2016,02,06,03,59,1025.62
2016,02,06,04,00,1025.66
2016,02,06,04,01,1025.70
2016,02,06,04,02,1025.70
2016,02,06,04,03,1025.72
2016,02,06,04,04,1025.76
2016,02,06,04,05,1025.79
2016,02,06,04,06,1025.83
2016,02,06,04,07,1025.84
2016,02,06,04,08,1025.86
2016,02,06,04,09,1025.85
2016,02,06,04,10,1025.82
2016,02,06,04,11,1025.84
2016,02,06,04,12,1025.87
2016,02,06,04,13,1025.89
2016,02,06,04,14,1025.93
2016,02,06,04,15,1025.96
2016,02,06,04,16,1025.99
2016,02,06,04,17,1026.01
2016,02,06,04,18,1026.01
2016,02,06,04,19,1026.03
2016,02,06,04,20,1026.06
2016,02,06,04,21,1026.08
2016,02,06,04,22,1026.06
2016,02,06,04,23,1026.06
2016,02,06,04,24,1026.11
2016,02,06,04,25,1026.14
2016,02,06,04,26,1026.18
2016,02,06,04,27,1026.21
2016,02,06,04,28,1026.23
2016,02,06,04,29,1026.28
2016,02,06,04,30,1026.29
2016,02,06,04,31,1026.34
2016,02,06,04,32,1026.36
2016,02,06,04,33,1026.35
2016,02,06,04,34,1026.35
2016,02,06,04,35,1026.37
2016,02,06,04,36,1026.40
2016,02,06,04,37,1026.41
2016,02,06,04,38,1026.41
2016,02,06,04,39,1026.43
2016,02,06,04,40,1026.45
2016,02,06,04,41,1026.47
2016,02,06,04,42,1026.52
2016,02,06,04,43,1026.57
2016,02,06,04,44,1026.60
2016,02,06,04,45,1026.60
2016,02,06,04,46,1026.56
2016,02,06,04,47,1026.57
2016,02,06,04,48,1026.58
2016,02,06,04,49,1026.58
2016,02,06,04,50,1026.62
2016,02,06,04,51,1026.65
2016,02,06,04,52,1026.63
2016,02,06,04,53,1026.64
2016,02,06,04,54,1026.69
2016,02,06,04,55,1026.68
2016,02,06,04,56,1026.69
2016,02,06,04,57,1026.74
2016,02,06,04,58,1026.73
2016,02,06,04,59,1026.74
2016,02,06,05,00,1026.77
2016,02,06,05,01,1026.79
2016,02,06,05,02,1026.77
2016,02,06,05,03,1026.79
2016,02,06,05,04,1026.82
2016,02,06,05,05,1026.84
2016,02,06,05,06,1026.88
2016,02,06,05,07,1026.87
2016,02,06,05,08,1026.86
2016,02,06,05,09,1026.89
2016,02,06,05,10,1026.92
2016,02,06,05,11,1026.94
2016,02,06,05,12,1026.98
2016,02,06,05,13,1026.99
2016,02,06,05,14,1027.03
2016,02,06,05,15,1027.10
2016,02,06,05,16,1027.13
2016,02,06,05,17,1027.13
2016,02,06,05,18,1027.15
2016,02,06,05,19,1027.16
2016,02,06,05,20,1027.20
2016,02,06,05,21,1027.23
2016,02,06,05,22,1027.23
2016,02,06,05,23,1027.23
2016,02,06,05,24,1027.25
2016,02,06,05,25,1027.28
2016,02,06,05,26,1027.30
2016,02,06,05,27,1027.33
2016,02,06,05,28,1027.38
2016,02,06,05,29,1027.45
2016,02,06,05,30,1027.50
2016,02,06,05,31,1027.52
2016,02,06,05,32,1027.57
2016,02,06,05,33,1027.60
2016,02,06,05,34,1027.64
2016,02,06,05,35,1027.67
2016,02,06,05,36,1027.69
2016,02,06,05,37,1027.74
2016,02,06,05,38,1027.81
2016,02,06,05,39,1027.82
2016,02,06,05,40,1027.84
2016,02,06,05,41,1027.87
2016,02,06,05,42,1027.89
2016,02,06,05,43,1027.92
2016,02,06,05,44,1027.96
2016,02,06,05,45,1027.97
2016,02,06,05,46,1027.99
2016,02,06,05,47,1028.01
2016,02,06,05,48,1028.01
2016,02,06,05,49,1028.03
2016,02,06,05,50,1028.04
2016,02,06,05,51,1028.04
2016,02,06,05,52,1028.06
2016,02,06,05,53,1028.07
2016,02,06,05,54,1028.07
2016,02,06,05,55,1028.09
2016,02,06,05,56,1028.11
2016,02,06,05,57,1028.11
2016,02,06,05,58,1028.11
2016,02,06,05,59,1028.11
2016,02,06,06,00,1028.15
2016,02,06,06,01,1028.18
2016,02,06,06,02,1028.16
2016,02,06,06,03,1028.16
2016,02,06,06,04,1028.20
2016,02,06,06,05,1028.21
2016,02,06,06,06,1028.23
2016,02,06,06,07,1028.24
2016,02,06,06,08,1028.22
2016,02,06,06,09,1028.25
2016,02,06,06,10,1028.26
2016,02,06,06,11,1028.26
2016,02,06,06,12,1028.32
2016,02,06,06,13,1028.35
2016,02,06,06,14,1028.37
2016,02,06,06,15,1028.40
2016,02,06,06,16,1028.39
2016,02,06,06,17,1028.38
2016,02,06,06,18,1028.38
2016,02,06,06,19,1028.42
2016,02,06,06,20,1028.43
2016,02,06,06,21,1028.45
2016,02,06,06,22,1028.46
2016,02,06,06,23,1028.47
2016,02,06,06,24,1028.50
2016,02,06,06,25,1028.55
2016,02,06,06,26,1028.58
2016,02,06,06,27,1028.60
2016,02,06,06,28,1028.60
2016,02,06,06,29,1028.58
2016,02,06,06,30,1028.60
2016,02,06,06,31,1028.62
2016,02,06,06,32,1028.62
2016,02,06,06,33,1028.64
2016,02,06,06,34,1028.65
2016,02,06,06,35,1028.67
2016,02,06,06,36,1028.68
2016,02,06,06,37,1028.70
2016,02,06,06,38,1028.72
2016,02,06,06,39,1028.74
2016,02,06,06,40,1028.73
2016,02,06,06,41,1028.74
2016,02,06,06,42,1028.77
2016,02,06,06,43,1028.77
2016,02,06,06,44,1028.77
2016,02,06,06,45,1028.79
2016,02,06,06,46,1028.79
2016,02,06,06,47,1028.79
2016,02,06,06,48,1028.77
2016,02,06,06,49,1028.71
2016,02,06,06,50,1028.74
2016,02,06,06,51,1028.79
2016,02,06,06,52,1028.81
2016,02,06,06,53,1028.86
2016,02,06,06,54,1028.89
2016,02,06,06,55,1028.89
2016,02,06,06,56,1028.87
2016,02,06,06,57,1028.87
2016,02,06,06,58,1028.92
2016,02,06,06,59,1028.95
2016,02,06,07,00,1028.97
2016,02,06,07,01,1028.99
2016,02,06,07,02,1029.03
2016,02,06,07,03,1029.06
2016,02,06,07,04,1029.11
2016,02,06,07,05,1029.18
2016,02,06,07,06,1029.19
2016,02,06,07,07,1029.19
2016,02,06,07,08,1029.19
2016,02,06,07,09,1029.19
2016,02,06,07,10,1029.19
2016,02,06,07,11,1029.19
2016,02,06,07,12,1029.23
2016,02,06,07,13,1029.24
2016,02,06,07,14,1029.26
2016,02,06,07,15,1029.31
2016,02,06,07,16,1029.33
2016,02,06,07,17,1029.35
2016,02,06,07,18,1029.38
2016,02,06,07,19,1029.43
2016,02,06,07,20,1029.44
2016,02,06,07,21,1029.43
2016,02,06,07,22,1029.47
2016,02,06,07,23,1029.48
2016,02,06,07,24,1029.46
2016,02,06,07,25,1029.46
2016,02,06,07,26,1029.46
2016,02,06,07,27,1029.50
2016,02,06,07,28,1029.51
2016,02,06,07,29,1029.53
2016,02,06,07,30,1029.56
2016,02,06,07,31,1029.56
2016,02,06,07,32,1029.58
2016,02,06,07,33,1029.62
2016,02,06,07,34,1029.65
2016,02,06,07,35,1029.65
2016,02,06,07,36,1029.65
2016,02,06,07,37,1029.70
2016,02,06,07,38,1029.73
2016,02,06,07,39,1029.73
2016,02,06,07,40,1029.73
2016,02,06,07,41,1029.75
2016,02,06,07,42,1029.79
2016,02,06,07,43,1029.78
2016,02,06,07,44,1029.77
2016,02,06,07,45,1029.75
2016,02,06,07,46,1029.71
2016,02,06,07,47,1029.68
2016,02,06,07,48,1029.67
2016,02,06,07,49,1029.67
2016,02,06,07,50,1029.67
2016,02,06,07,51,1029.67
2016,02,06,07,52,1029.69
2016,02,06,07,53,1029.70
2016,02,06,07,54,1029.72
2016,02,06,07,55,1029.73
2016,02,06,07,56,1029.73
2016,02,06,07,57,1029.73
2016,02,06,07,58,1029.75
2016,02,06,07,59,1029.77
2016,02,06,08,00,1029.77
2016,02,06,08,01,1029.79
2016,02,06,08,02,1029.82
2016,02,06,08,03,1029.84
2016,02,06,08,04,1029.85
2016,02,06,08,05,1029.87
2016,02,06,08,06,1029.83
2016,02,06,08,07,1029.84
2016,02,06,08,08,1029.85
2016,02,06,08,09,1029.84
2016,02,06,08,10,1029.82
2016,02,06,08,11,1029.80
2016,02,06,08,12,1029.80
2016,02,06,08,13,1029.84
2016,02,06,08,14,1029.87
2016,02,06,08,15,1029.87
2016,02,06,08,16,1029.89
2016,02,06,08,17,1029.92
2016,02,06,08,18,1029.94
2016,02,06,08,19,1029.92
2016,02,06,08,20,1029.94
2016,02,06,08,21,1029.99
2016,02,06,08,22,1029.98
2016,02,06,08,23,1030.01
2016,02,06,08,24,1030.04
2016,02,06,08,25,1030.04
2016,02,06,08,26,1030.04
2016,02,06,08,27,1030.06
2016,02,06,08,28,1030.05
2016,02,06,08,29,1030.06
2016,02,06,08,30,1030.05
2016,02,06,08,31,1030.04
2016,02,06,08,32,1030.04
2016,02,06,08,33,1030.04
2016,02,06,08,34,1030.04
2016,02,06,08,35,1030.08
2016,02,06,08,36,1030.11
2016,02,06,08,37,1030.13
2016,02,06,08,38,1030.14
2016,02,06,08,39,1030.14
2016,02,06,08,40,1030.18
2016,02,06,08,41,1030.21
2016,02,06,08,42,1030.23
2016,02,06,08,43,1030.24
2016,02,06,08,44,1030.24
2016,02,06,08,45,1030.26
2016,02,06,08,46,1030.30
2016,02,06,08,47,1030.31
2016,02,06,08,48,1030.31
2016,02,06,08,49,1030.31
2016,02,06,08,50,1030.31
2016,02,06,08,51,1030.31
2016,02,06,08,52,1030.33
2016,02,06,08,53,1030.34
2016,02,06,08,54,1030.34
2016,02,06,08,55,1030.34
2016,02,06,08,56,1030.34
2016,02,06,08,57,1030.32
2016,02,06,08,58,1030.35
2016,02,06,08,59,1030.36
2016,02,06,09,00,1030.32
2016,02,06,09,01,1030.33
2016,02,06,09,02,1030.34
2016,02,06,09,03,1030.34
2016,02,06,09,04,1030.38
2016,02,06,09,05,1030.41
2016,02,06,09,06,1030.46
2016,02,06,09,07,1030.51
2016,02,06,09,08,1030.53
2016,02,06,09,09,1030.57
2016,02,06,09,10,1030.56
2016,02,06,09,11,1030.56
2016,02,06,09,12,1030.58
2016,02,06,09,13,1030.56
2016,02,06,09,14,1030.57
2016,02,06,09,15,1030.56
2016,02,06,09,16,1030.57
2016,02,06,09,17,1030.58
2016,02,06,09,18,1030.58
2016,02,06,09,19,1030.59
2016,02,06,09,20,1030.60
2016,02,06,09,21,1030.58
2016,02,06,09,22,1030.61
2016,02,06,09,23,1030.63
2016,02,06,09,24,1030.63
2016,02,06,09,25,1030.65
2016,02,06,09,26,1030.69
2016,02,06,09,27,1030.72
2016,02,06,09,28,1030.74
2016,02,06,09,29,1030.75
2016,02,06,09,30,1030.77
2016,02,06,09,31,1030.80
2016,02,06,09,32,1030.80
2016,02,06,09,33,1030.83
2016,02,06,09,34,1030.90
2016,02,06,09,35,1030.97
2016,02,06,09,36,1031.07
2016,02,06,09,37,1031.16
2016,02,06,09,38,1031.22
2016,02,06,09,39,1031.29
2016,02,06,09,40,1031.33
2016,02,06,09,41,1031.33
2016,02,06,09,42,1031.31
2016,02,06,09,43,1031.31
2016,02,06,09,44,1031.31
2016,02,06,09,45,1031.29
2016,02,06,09,46,1031.31
2016,02,06,09,47,1031.31
2016,02,06,09,48,1031.25
2016,02,06,09,49,1031.27
2016,02,06,09,50,1031.33
2016,02,06,09,51,1031.33
2016,02,06,09,52,1031.34
2016,02,06,09,53,1031.35
2016,02,06,09,54,1031.33
2016,02,06,09,55,1031.34
2016,02,06,09,56,1031.39
2016,02,06,09,57,1031.41
2016,02,06,09,58,1031.38
2016,02,06,09,59,1031.36
2016,02,06,10,00,1031.39
2016,02,06,10,01,1031.41
2016,02,06,10,02,1031.41
2016,02,06,10,03,1031.46
2016,02,06,10,04,1031.51
2016,02,06,10,05,1031.54
2016,02,06,10,06,1031.58
2016,02,06,10,07,1031.58
2016,02,06,10,08,1031.56
2016,02,06,10,09,1031.59
2016,02,06,10,10,1031.61
2016,02,06,10,11,1031.60
2016,02,06,10,12,1031.63
2016,02,06,10,13,1031.68
2016,02,06,10,14,1031.70
2016,02,06,10,15,1031.74
2016,02,06,10,16,1031.77
2016,02,06,10,17,1031.79
2016,02,06,10,18,1031.78
2016,02,06,10,19,1031.79
2016,02,06,10,20,1031.80
2016,02,06,10,21,1031.82
2016,02,06,10,22,1031.81
2016,02,06,10,23,1031.82
2016,02,06,10,24,1031.86
2016,02,06,10,25,1031.90
2016,02,06,10,26,1031.93
2016,02,06,10,27,1031.97
2016,02,06,10,28,1031.95
2016,02,06,10,29,1031.96
2016,02,06,10,30,1032.02
2016,02,06,10,31,1032.05
2016,02,06,10,32,1032.07
2016,02,06,10,33,1032.10
2016,02,06,10,34,1032.14
2016,02,06,10,35,1032.18
2016,02,06,10,36,1032.21
2016,02,06,10,37,1032.24
2016,02,06,10,38,1032.27
2016,02,06,10,39,1032.27
2016,02,06,10,40,1032.31
2016,02,06,10,41,1032.34
2016,02,06,10,42,1032.36
2016,02,06,10,43,1032.37
2016,02,06,10,44,1032.37
2016,02,06,10,45,1032.37
2016,02,06,10,46,1032.41
2016,02,06,10,47,1032.44
2016,02,06,10,48,1032.43
2016,02,06,10,49,1032.39
2016,02,06,10,50,1032.39
2016,02,06,10,51,1032.42
2016,02,06,10,52,1032.44
2016,02,06,10,53,1032.43
2016,02,06,10,54,1032.41
2016,02,06,10,55,1032.42
2016,02,06,10,56,1032.43
2016,02,06,10,57,1032.42
2016,02,06,10,58,1032.44
2016,02,06,10,59,1032.46
2016,02,06,11,00,1032.48
2016,02,06,11,01,1032.48
2016,02,06,11,02,1032.50
2016,02,06,11,03,1032.51
2016,02,06,11,04,1032.49
2016,02,06,11,05,1032.51
2016,02,06,11,06,1032.54
2016,02,06,11,07,1032.58
2016,02,06,11,08,1032.59
2016,02,06,11,09,1032.60
2016,02,06,11,10,1032.61
2016,02,06,11,11,1032.59
2016,02,06,11,12,1032.59
2016,02,06,11,13,1032.61
2016,02,06,11,14,1032.61
2016,02,06,11,15,1032.60
2016,02,06,11,16,1032.58
2016,02,06,11,17,1032.59
2016,02,06,11,18,1032.61
2016,02,06,11,19,1032.63
2016,02,06,11,20,1032.63
2016,02,06,11,21,1032.60
2016,02,06,11,22,1032.58
2016,02,06,11,23,1032.56
2016,02,06,11,24,1032.51
2016,02,06,11,25,1032.46
2016,02,06,11,26,1032.43
2016,02,06,11,27,1032.44
2016,02,06,11,28,1032.46
2016,02,06,11,29,1032.46
2016,02,06,11,30,1032.48
2016,02,06,11,31,1032.51
2016,02,06,11,32,1032.53
2016,02,06,11,33,1032.52
2016,02,06,11,34,1032.53
2016,02,06,11,35,1032.53
2016,02,06,11,36,1032.54
2016,02,06,11,37,1032.54
2016,02,06,11,38,1032.54
2016,02,06,11,39,1032.57
2016,02,06,11,40,1032.60
2016,02,06,11,41,1032.56
2016,02,06,11,42,1032.53
2016,02,06,11,43,1032.52
2016,02,06,11,44,1032.54
2016,02,06,11,45,1032.54
2016,02,06,11,46,1032.54
2016,02,06,11,47,1032.54
2016,02,06,11,48,1032.54
2016,02,06,11,49,1032.56
2016,02,06,11,50,1032.58
2016,02,06,11,51,1032.56
2016,02,06,11,52,1032.54
2016,02,06,11,53,1032.53
2016,02,06,11,54,1032.52
2016,02,06,11,55,1032.53
2016,02,06,11,56,1032.52
2016,02,06,11,57,1032.53
2016,02,06,11,58,1032.48
2016,02,06,11,59,1032.43
2016,02,06,12,00,1032.39
2016,02,06,12,01,1032.39
2016,02,06,12,02,1032.43
2016,02,06,12,03,1032.46
2016,02,06,12,04,1032.45
2016,02,06,12,05,1032.41
2016,02,06,12,06,1032.43
2016,02,06,12,07,1032.42
2016,02,06,12,08,1032.37
2016,02,06,12,09,1032.29
2016,02,06,12,10,1032.19
2016,02,06,12,11,1032.11
2016,02,06,12,12,1032.10
2016,02,06,12,13,1032.20
2016,02,06,12,14,1032.26
2016,02,06,12,15,1032.24
2016,02,06,12,16,1032.19
2016,02,06,12,17,1032.12
2016,02,06,12,18,1032.13
2016,02,06,12,19,1032.17
2016,02,06,12,20,1032.22
2016,02,06,12,21,1032.30
2016,02,06,12,22,1032.34
2016,02,06,12,23,1032.34
2016,02,06,12,24,1032.39
2016,02,06,12,25,1032.44
2016,02,06,12,26,1032.41
2016,02,06,12,27,1032.36
2016,02,06,12,28,1032.33
2016,02,06,12,29,1032.34
2016,02,06,12,30,1032.36
2016,02,06,12,31,1032.33
2016,02,06,12,32,1032.31
2016,02,06,12,33,1032.32
2016,02,06,12,34,1032.35
2016,02,06,12,35,1032.39
2016,02,06,12,36,1032.39
2016,02,06,12,37,1032.37
2016,02,06,12,38,1032.36
2016,02,06,12,39,1032.35
2016,02,06,12,40,1032.36
2016,02,06,12,41,1032.34
2016,02,06,12,42,1032.34
2016,02,06,12,43,1032.34
2016,02,06,12,44,1032.34
2016,02,06,12,45,1032.35
2016,02,06,12,46,1032.37
2016,02,06,12,47,1032.39
2016,02,06,12,48,1032.38
2016,02,06,12,49,1032.34
2016,02,06,12,50,1032.34
2016,02,06,12,51,1032.34
2016,02,06,12,52,1032.33
2016,02,06,12,53,1032.31
2016,02,06,12,54,1032.28
2016,02,06,12,55,1032.21
2016,02,06,12,56,1032.22
2016,02,06,12,57,1032.27
2016,02,06,12,58,1032.29
2016,02,06,12,59,1032.32
2016,02,06,13,00,1032.33
2016,02,06,13,01,1032.32
2016,02,06,13,02,1032.34
2016,02,06,13,03,1032.37
2016,02,06,13,04,1032.39
2016,02,06,13,05,1032.34
2016,02,06,13,06,1032.29
2016,02,06,13,07,1032.27
2016,02,06,13,08,1032.26
2016,02,06,13,09,1032.25
2016,02,06,13,10,1032.29
2016,02,06,13,11,1032.28
2016,02,06,13,12,1032.29
2016,02,06,13,13,1032.33
2016,02,06,13,14,1032.32
2016,02,06,13,15,1032.37
2016,02,06,13,16,1032.42
2016,02,06,13,17,1032.46
2016,02,06,13,18,1032.49
2016,02,06,13,19,1032.50
2016,02,06,13,20,1032.49
2016,02,06,13,21,1032.51
2016,02,06,13,22,1032.50
2016,02,06,13,23,1032.49
2016,02,06,13,24,1032.51
2016,02,06,13,25,1032.52
2016,02,06,13,26,1032.56
2016,02,06,13,27,1032.58
2016,02,06,13,28,1032.58
2016,02,06,13,29,1032.59
2016,02,06,13,30,1032.60
2016,02,06,13,31,1032.58
2016,02,06,13,32,1032.56
2016,02,06,13,33,1032.54
2016,02,06,13,34,1032.53
2016,02,06,13,35,1032.51
2016,02,06,13,36,1032.51
2016,02,06,13,37,1032.54
2016,02,06,13,38,1032.56
2016,02,06,13,39,1032.57
2016,02,06,13,40,1032.60
2016,02,06,13,41,1032.58
2016,02,06,13,42,1032.56
2016,02,06,13,43,1032.56
2016,02,06,13,44,1032.56
2016,02,06,13,45,1032.54
2016,02,06,13,46,1032.53
2016,02,06,13,47,1032.51
2016,02,06,13,48,1032.50
2016,02,06,13,49,1032.49
2016,02,06,13,50,1032.51
2016,02,06,13,51,1032.52
2016,02,06,13,52,1032.54
2016,02,06,13,53,1032.54
2016,02,06,13,54,1032.54
2016,02,06,13,55,1032.51
2016,02,06,13,56,1032.49
2016,02,06,13,57,1032.50
2016,02,06,13,58,1032.48
2016,02,06,13,59,1032.49
2016,02,06,14,00,1032.51
2016,02,06,14,01,1032.52
2016,02,06,14,02,1032.53
2016,02,06,14,03,1032.51
2016,02,06,14,04,1032.51
2016,02,06,14,05,1032.50
2016,02,06,14,06,1032.48
2016,02,06,14,07,1032.48
2016,02,06,14,08,1032.46
2016,02,06,14,09,1032.44
2016,02,06,14,10,1032.43
2016,02,06,14,11,1032.41
2016,02,06,14,12,1032.41
2016,02,06,14,13,1032.41
2016,02,06,14,14,1032.41
2016,02,06,14,15,1032.38
2016,02,06,14,16,1032.37
2016,02,06,14,17,1032.42
2016,02,06,14,18,1032.44
2016,02,06,14,19,1032.44
2016,02,06,14,20,1032.44
2016,02,06,14,21,1032.43
2016,02,06,14,22,1032.42
2016,02,06,14,23,1032.43
2016,02,06,14,24,1032.42
2016,02,06,14,25,1032.44
2016,02,06,14,26,1032.44
2016,02,06,14,27,1032.44
2016,02,06,14,28,1032.43
2016,02,06,14,29,1032.44
2016,02,06,14,30,1032.48
2016,02,06,14,31,1032.48
2016,02,06,14,32,1032.48
2016,02,06,14,33,1032.46
2016,02,06,14,34,1032.47
2016,02,06,14,35,1032.51
2016,02,06,14,36,1032.50
2016,02,06,14,37,1032.49
2016,02,06,14,38,1032.48
2016,02,06,14,39,1032.41
2016,02,06,14,40,1032.39
2016,02,06,14,41,1032.39
2016,02,06,14,42,1032.40
2016,02,06,14,43,1032.44
2016,02,06,14,44,1032.43
2016,02,06,14,45,1032.44
2016,02,06,14,46,1032.48
2016,02,06,14,47,1032.48
2016,02,06,14,48,1032.48
2016,02,06,14,49,1032.51
2016,02,06,14,50,1032.54
2016,02,06,14,51,1032.54
2016,02,06,14,52,1032.57
2016,02,06,14,53,1032.61
2016,02,06,14,54,1032.63
2016,02,06,14,55,1032.65
2016,02,06,14,56,1032.65
2016,02,06,14,57,1032.66
2016,02,06,14,58,1032.68
2016,02,06,14,59,1032.67
2016,02,06,15,00,1032.65
2016,02,06,15,01,1032.65
2016,02,06,15,02,1032.65
2016,02,06,15,03,1032.63
2016,02,06,15,04,1032.60
2016,02,06,15,05,1032.55
2016,02,06,15,06,1032.50
2016,02,06,15,07,1032.48
2016,02,06,15,08,1032.45
2016,02,06,15,09,1032.44
2016,02,06,15,10,1032.49
2016,02,06,15,11,1032.52
2016,02,06,15,12,1032.51
2016,02,06,15,13,1032.49
2016,02,06,15,14,1032.51
2016,02,06,15,15,1032.51
2016,02,06,15,16,1032.50
2016,02,06,15,17,1032.46
2016,02,06,15,18,1032.43
2016,02,06,15,19,1032.42
2016,02,06,15,20,1032.43
2016,02,06,15,21,1032.39
2016,02,06,15,22,1032.36
2016,02,06,15,23,1032.33
2016,02,06,15,24,1032.29
2016,02,06,15,25,1032.27
2016,02,06,15,26,1032.26
2016,02,06,15,27,1032.24
2016,02,06,15,28,1032.24
2016,02,06,15,29,1032.28
2016,02,06,15,30,1032.35
2016,02,06,15,31,1032.39
2016,02,06,15,32,1032.42
2016,02,06,15,33,1032.44
2016,02,06,15,34,1032.44
2016,02,06,15,35,1032.43
2016,02,06,15,36,1032.41
2016,02,06,15,37,1032.39
2016,02,06,15,38,1032.37
2016,02,06,15,39,1032.32
2016,02,06,15,40,1032.29
2016,02,06,15,41,1032.31
2016,02,06,15,42,1032.31
2016,02,06,15,43,1032.31
2016,02,06,15,44,1032.31
2016,02,06,15,45,1032.29
2016,02,06,15,46,1032.27
2016,02,06,15,47,1032.26
2016,02,06,15,48,1032.21
2016,02,06,15,49,1032.17
2016,02,06,15,50,1032.16
2016,02,06,15,51,1032.15
2016,02,06,15,52,1032.24
2016,02,06,15,53,1032.31
2016,02,06,15,54,1032.31
2016,02,06,15,55,1032.31
2016,02,06,15,56,1032.31